CW5834 Weather Reports


time (UTC)temp
C
wind
direction
speed
KPH
gust
KPH
rain 1hr
cm
rain 24hr
cm
rain mn
cm
humidity
%
barometer
mb
20260502203516 15 338 4.8 9.7 0.00 0.00 0.00 43 1014.7
20260502202516 15 315 6.4 16.1 0.00 0.00 0.00 40 1014.8
20260502201516 16 45 6.4 19.3 0.00 0.00 0.00 41 1015.0
20260502200516 15 315 3.2 6.4 0.00 0.00 0.00 39 1014.8
20260502195517 15 68 4.8 14.5 0.00 0.00 0.00 38 1014.9
20260502194516 15 45 6.4 19.3 0.00 0.00 0.00 39 1014.9
20260502193516 15 23 6.4 25.7 0.00 0.00 0.00 37 1015.1
20260502192516 15 315 8.0 16.1 0.00 0.00 0.00 42 1015.0
20260502191515 15 338 6.4 19.3 0.00 0.00 0.00 38 1014.8
20260502190555 15 180 3.2 12.9 0.00 0.00 0.00 40 1015.1
20260502185515 16 293 8.0 19.3 0.00 0.00 0.00 36 1015.1
20260502184516 15 338 3.2 8.0 0.00 0.00 0.00 38 1015.2
20260502183516 16 45 4.8 16.1 0.00 0.00 0.00 36 1015.4
20260502182516 16 338 4.8 12.9 0.00 0.00 0.00 41 1015.4
20260502181535 16 23 3.2 14.5 0.00 0.00 0.00 40 1015.5
20260502180535 15 315 4.8 12.9 0.00 0.00 0.00 38 1015.6
20260502170517 15 0 4.8 17.7 0.00 0.00 0.00 42 1016.1
20260502163517 15 113 4.8 16.1 0.00 0.00 0.00 39 1016.3
20260502162517 15 23 4.8 14.5 0.00 0.00 0.00 41 1016.5
20260502161518 14 293 4.8 11.3 0.00 0.00 0.00 42 1016.3
20260502160537 15 315 8.0 19.3 0.00 0.00 0.00 44 1016.5
20260502151521 13 135 3.2 8.0 0.00 0.00 0.00 45 1016.7
20260502150517 13 293 4.8 12.9 0.00 0.00 0.00 48 1016.8
20260502130517 11 158 1.6 6.4 0.00 0.00 0.00 60 1016.5
20260502123517 10 90 1.6 4.8 0.00 0.00 0.00 63 1016.4
20260502122516 10 23 1.6 6.4 0.00 0.00 0.00 63 1016.4
20260502121517 9 0 3.2 8.0 0.00 0.00 0.00 67 1016.3
20260502120516 8 23 1.6 4.8 0.00 0.00 0.00 69 1016.3
20260502115517 8 0 1.6 4.8 0.00 0.00 0.00 69 1016.0
20260502114517 8 0.0 3.2 0.00 0.00 0.00 72 1016.0
20260502113517 8 0.0 0.0 0.00 0.00 0.00 73 1015.9
20260502112536 8 0.0 1.6 0.00 0.00 0.00 74 1015.8
20260502111517 8 0.0 3.2 0.00 0.00 0.00 71 1015.7
20260502110523 8 0.0 1.6 0.00 0.00 0.00 71 1015.6
20260502105536 8 338 1.6 3.2 0.00 0.00 0.00 69 1015.6
20260502104516 8 0 1.6 3.2 0.00 0.00 0.00 69 1015.6
20260502103516 8 338 3.2 6.4 0.00 0.00 0.00 68 1015.6
20260502102537 8 338 1.6 3.2 0.00 0.00 0.00 68 1015.9
20260502100516 8 0 3.2 4.8 0.00 0.00 0.00 66 1015.5
20260502090516 8 0 1.6 3.2 0.00 0.00 0.00 66 1015.5
20260502071516 9 338 1.6 3.2 0.00 0.00 0.00 68 1016.2
20260502070556 10 0.0 3.2 0.00 0.00 0.00 68 1016.2
20260502065516 10 23 1.6 3.2 0.00 0.00 0.00 66 1016.1
20260502064516 10 338 1.6 3.2 0.00 0.00 0.00 66 1016.1
20260502063516 10 0 1.6 3.2 0.00 0.00 0.00 65 1016.3
20260502062516 10 338 1.6 3.2 0.00 0.00 0.00 65 1016.2
20260502061516 10 0 3.2 6.4 0.00 0.00 0.00 64 1016.1
20260502060516 10 338 1.6 4.8 0.00 0.00 0.00 64 1016.0
20260502055516 10 0 3.2 6.4 0.00 0.00 0.00 62 1016.0
20260502054516 10 0 3.2 6.4 0.00 0.00 0.00 62 1016.2
20260502053517 10 23 1.6 6.4 0.00 0.00 0.00 62 1016.3
20260502052536 11 45 3.2 8.0 0.00 0.00 0.00 61 1016.3
20260502051556 11 0 4.8 9.7 0.00 0.00 0.00 60 1016.2
20260502050516 11 0 1.6 3.2 0.00 0.00 0.00 61 1016.2
20260502045516 11 0 1.6 8.0 0.00 0.00 0.00 59 1016.1
20260502044516 11 0 3.2 8.0 0.00 0.00 0.00 59 1016.1
20260502043515 11 0 3.2 8.0 0.00 0.00 0.00 59 1016.1
20260502042536 11 0 1.6 4.8 0.00 0.00 0.00 59 1015.8
20260502041516 12 0 4.8 14.5 0.00 0.00 0.00 58 1015.8
20260502040516 12 23 3.2 8.0 0.00 0.00 0.00 59 1015.7
20260502035517 12 293 1.6 4.8 0.00 0.00 0.00 60 1015.6
20260502034517 12 113 1.6 4.8 0.00 0.00 0.00 59 1015.6
20260502033517 12 0 4.8 16.1 0.00 0.00 0.00 58 1015.8
20260502032517 12 338 1.6 8.0 0.00 0.00 0.00 59 1015.7
20260502031517 12 0 3.2 14.5 0.00 0.00 0.00 60 1015.8
20260502030516 12 23 3.2 14.5 0.00 0.00 0.00 60 1015.8
20260502025516 12 338 1.6 3.2 0.00 0.00 0.00 61 1015.7
20260502024516 13 23 1.6 3.2 0.00 0.00 0.00 61 1015.8
20260502023516 13 68 1.6 4.8 0.00 0.00 0.00 61 1015.8
20260502022516 13 0.0 3.2 0.00 0.00 0.00 61 1015.7
20260502021516 13 338 1.6 6.4 0.00 0.00 0.00 61 1015.7
20260502020516 13 0.0 3.2 0.00 0.00 0.00 62 1015.5
20260502015516 13 23 4.8 12.9 0.00 0.00 0.00 61 1015.3
20260502014516 13 0 1.6 3.2 0.00 0.00 0.00 63 1015.1
20260502013516 14 0 3.2 12.9 0.00 0.00 0.00 63 1015.0
20260502012516 14 23 3.2 6.4 0.00 0.00 0.00 64 1014.7
20260502011516 14 0.0 6.4 0.00 0.00 0.00 63 1014.6
20260502010556 15 0 6.4 16.1 0.00 0.00 0.00 61 1014.4
20260502005516 15 68 1.6 8.0 0.00 0.00 0.00 60 1013.6
20260502004516 15 338 3.2 8.0 0.00 0.00 0.00 55 1013.4
20260502003516 16 315 4.8 12.9 0.00 0.00 0.00 54 1013.4
20260502002522 16 23 3.2 8.0 0.00 0.00 0.00 51 1013.2
20260502001516 16 0 3.2 9.7 0.00 0.00 0.00 51 1013.2
20260502000517 16 0 6.4 14.5 0.00 0.00 0.00 49 1013.0
20260501235516 16 315 1.6 8.0 0.00 0.00 0.00 49 1013.0
20260501234536 17 338 3.2 6.4 0.00 0.00 0.00 48 1012.7
20260501233516 17 315 3.2 8.0 0.00 0.00 0.00 47 1012.4
20260501232516 17 293 3.2 8.0 0.00 0.00 0.00 45 1012.4
20260501231516 17 315 1.6 4.8 0.00 0.00 0.00 45 1012.2
20260501230516 17 315 1.6 4.8 0.00 0.00 0.00 46 1012.3
20260501225516 18 315 4.8 14.5 0.00 0.00 0.00 44 1012.4
20260501224516 18 0 1.6 9.7 0.00 0.00 0.00 46 1012.4
20260501223516 18 338 3.2 9.7 0.00 0.00 0.00 43 1012.5
20260501222516 18 315 1.6 6.4 0.00 0.00 0.00 45 1012.5
20260501221516 18 315 4.8 14.5 0.00 0.00 0.00 43 1012.6
20260501220536 19 338 4.8 14.5 0.00 0.00 0.00 41 1012.9
20260501215516 19 315 4.8 16.1 0.00 0.00 0.00 39 1012.8
20260501214536 19 338 3.2 6.4 0.00 0.00 0.00 46 1012.7
20260501213516 19 225 3.2 12.9 0.00 0.00 0.00 43 1012.7
20260501212516 19 338 8.0 19.3 0.00 0.00 0.00 42 1012.7
20260501211536 19 203 8.0 20.9 0.00 0.00 0.00 44 1012.7
20260501210516 19 203 3.2 12.9 0.00 0.00 0.00 43 1012.8
20260501205520 20 203 4.8 11.3 0.00 0.00 0.00 43 1013.1
20260501204535 20 203 1.6 8.0 0.00 0.00 0.00 46 1013.2